Back to catalog

STARLINK-32621

AliveCommunicationsVLEO
NORAD 62303·PAYLOAD·🇺🇸 United States

Launched Dec 13, 2024 from Vandenberg Space Force Base

Loading…

Next Passes (next 24 hours)

TLE

FreshSource: CelesTrak SupGP

Epoch: Sep 14, 2026, 21:17 UTC

1 62303C 24239C   26257.88729167  .00025086  00000+0  74145-3 0  2575
2 62303  53.1603  19.6784 0001235  83.9104  86.0933 15.34366933    18

Track STARLINK-32621 in real time with AllMySat

Download on the App Store